Regional Weather Roundup
Issued by NWS Sioux Falls, SD

Home | Current Version | Previous Version | Graphics & Text | Print | Product List | Glossary Off
Versions: 1 2 3 4 5 6 7 8 9 10 11 12 13 14 15 16 17 18 19 20 21 22 23 24 25 26 27 28 29 30 31 32 33 34 35 36 37 38 39 40 41 42 43 44 45 46 47 48 49 50

000
ASUS43 KFSD 241310
RWRFSD

WEATHER ROUNDUP FOR SE SOUTH DAKOTA/SW MINNESOTA/NW IOWA
NATIONAL WEATHER SERVICE SIOUX FALLS SD
800 AM CDT SUN SEP 24 2017

NOTE: "FAIR" INDICATES FEW OR NO CLOUDS BELOW 12,000 FEET WITH NO
SIGNIFICANT WEATHER AND OR OBSTRUCTIONS TO VISIBILITY.


SDZ038>040-050-052>070-241400-
SOUTHEAST SOUTH DAKOTA

CITY           SKY/WX    TMP DP  RH WIND       PRES   REMARKS
BROOKINGS      MOCLDY    65  63  93 S8        29.88R
CHAMBERLAIN    LGT RAIN  54  54 100 W5        29.89R
HURON          RAIN      56  56 100 W5        29.84F FOG
MADISON        FAIR      59  59 100 S3        29.88S
MITCHELL       FOG       58  58 100 SE5       29.85S VSB 1/4
SIOUX FALLS    CLOUDY    70  66  87 S10       29.87S
WINNER         LGT RAIN  53  51  93 W6        29.91R
YANKTON        PTCLDY    57  57 100 E5        29.86F FOG
$$

MNZ071-072-080-081-089-090-097-098-241400-
SOUTHWEST MINNESOTA

CITY           SKY/WX    TMP DP  RH WIND       PRES   REMARKS
FAIRMONT       CLEAR     68  64  87 S9        29.96R
JACKSON        CLEAR     66  63  88 CALM      29.95S
LUVERNE        CLOUDY    66  63  88 S8        29.90S
MARSHALL       PTCLDY    62  61  96 S9        29.88S
MONTEVIDEO     PTCLDY    63  63 100 S10       29.87S
PIPESTONE      PTCLDY    70  64  83 S9        29.89S
REDWOOD FALLS  CLOUDY    63  61  93 S12       29.90S
TRACY          MOCLDY    67  67  98 S10G17    29.90S
WORTHINGTON    CLEAR     66  63  90 SE7       29.93S
$$

IAZ001>003-012>014-020>022-031-032-NEZ013-014-SDZ071-241400-
NORTHWEST IOWA

CITY           SKY/WX    TMP DP  RH WIND       PRES   REMARKS
CHEROKEE       CLEAR     67  66  99 S5        29.93S
DENISON        CLEAR     70  64  83 S14       29.95S
ESTHERVILLE    CLEAR     65  65 100 S7        29.95R
LE MARS        CLOUDY    68  64  88 SE7       29.90S
ORANGE CITY    CLOUDY    70  66  88 S7        29.92R
SHELDON        CLEAR     68  64  88 S7        29.91S
SIOUX CITY     PTCLDY    65  65 100 SE6       29.90R
SPENCER        CLEAR     68  65  90 SE10      29.94S
STORM LAKE     CLEAR     66  64  94 S7        29.95S
$$

ABBREVIATIONS USED IN REMARKS
   TC - TEMPERATURE IN CELSIUS
  WCI - WIND CHILL INDEX
   HX - HEAT INDEX
  VSB - VISIBILITY





USA.gov is the U.S. government's official web portal to all federal, state and local government web resources and services.